GW1700 Weather Reports


time (UTC)temp
C
wind
direction
speed
KPH
gust
KPH
rain 1hr
cm
rain 24hr
cm
rain mn
cm
humidity
%
barometer
mb
20260507084018 10 0 0.0 8.0 0.00 0.03 0.00 91 1023.9
20260507083520 10 236 1.6 8.0 0.00 0.03 0.00 91 1023.9
20260507083036 10 271 1.6 8.0 0.00 0.03 0.00 91 1024.0
20260507082519 10 238 0.0 4.8 0.00 0.03 0.00 91 1024.0
20260507082019 10 234 0.0 8.0 0.00 0.03 0.00 91 1024.0
20260507081535 10 0 1.6 11.3 0.00 0.03 0.00 91 1024.0
20260507081019 10 223 4.8 11.3 0.00 0.03 0.00 91 1023.9
20260507080519 10 0 3.2 8.0 0.00 0.03 0.00 91 1024.0
20260507080035 10 225 3.2 8.0 0.00 0.03 0.00 91 1024.0
20260507075519 10 189 0.0 8.0 0.00 0.03 0.00 92 1024.0
20260507075022 10 231 1.6 8.0 0.00 0.03 0.00 92 1024.0
20260507074537 10 230 1.6 6.4 0.00 0.03 0.00 92 1024.0
20260507074018 10 216 1.6 6.4 0.00 0.03 0.00 92 1024.0
20260507073519 10 210 1.6 6.4 0.00 0.03 0.00 92 1023.9
20260507073037 10 236 0.0 4.8 0.00 0.03 0.00 92 1024.0
20260507072519 10 0 0.0 3.2 0.00 0.03 0.00 92 1024.0
20260507072019 10 0 0.0 3.2 0.00 0.03 0.00 92 1023.9
20260507071542 10 0 0.0 3.2 0.00 0.03 0.00 92 1023.8
20260507071019 10 0 0.0 1.6 0.00 0.03 0.00 92 1023.9
20260507070520 10 0 0.0 1.6 0.00 0.03 0.00 92 1023.9
20260507070042 10 0 0.0 0.0 0.00 0.03 0.00 91 1023.9
20260507065519 10 0 0.0 1.6 0.00 0.03 0.03 91 1023.9
20260507065019 10 0 0.0 1.6 0.00 0.03 0.03 91 1023.9
20260507064544 11 0 0.0 1.6 0.00 0.03 0.03 90 1023.9
20260507064019 11 0 0.0 0.0 0.00 0.03 0.03 90 1023.9
20260507063520 11 0 0.0 0.0 0.00 0.03 0.03 90 1023.8
20260507063037 11 0 0.0 1.6 0.00 0.03 0.03 89 1023.9
20260507062519 11 0 0.0 1.6 0.00 0.03 0.03 88 1024.0
20260507062019 11 261 0.0 1.6 0.00 0.03 0.03 87 1023.9
20260507061540 11 0 0.0 1.6 0.00 0.03 0.03 86 1023.9
20260507061019 11 0 0.0 0.0 0.00 0.03 0.03 87 1023.9
20260507060519 11 0 0.0 1.6 0.00 0.03 0.03 86 1023.9
20260507060040 11 0 0.0 1.6 0.00 0.03 0.03 86 1023.9
20260507055518 11 0 0.0 3.2 0.00 0.03 0.03 85 1023.9
20260507055016 11 0 0.0 8.0 0.00 0.03 0.03 84 1023.9
20260507054540 11 0 1.6 8.0 0.00 0.03 0.03 83 1024.0
20260507054022 11 235 0.0 6.4 0.00 0.03 0.03 84 1023.9
20260507053520 11 241 1.6 6.4 0.00 0.03 0.03 84 1023.9
20260507053038 11 0 0.0 6.4 0.00 0.03 0.03 84 1023.8
20260507052524 11 240 1.6 6.4 0.00 0.03 0.03 85 1023.8
20260507052020 11 196 0.0 4.8 0.00 0.03 0.03 85 1023.9
20260507051536 11 0 0.0 0.0 0.00 0.03 0.03 85 1023.9
20260507051026 11 0 0.0 0.0 0.00 0.03 0.03 85 1023.8
20260507050519 11 0 0.0 0.0 0.00 0.03 0.03 85 1023.9
20260507050058 11 0 0.0 0.0 0.00 0.03 0.03 85 1023.9
20260507045519 11 0 0.0 0.0 0.00 0.03 0.03 85 1023.9
20260507045019 11 0 0.0 0.0 0.00 0.03 0.03 85 1023.9
20260507044546 11 0 0.0 1.6 0.00 0.03 0.03 84 1023.9
20260507044019 12 0 0.0 4.8 0.00 0.03 0.03 84 1023.8
20260507043519 12 0 0.0 4.8 0.00 0.03 0.03 84 1023.8
20260507043036 11 0 1.6 4.8 0.00 0.03 0.03 84 1023.8
20260507042519 11 0 0.0 3.2 0.00 0.03 0.03 85 1023.8
20260507042018 11 0 0.0 3.2 0.00 0.03 0.03 85 1023.9
20260507041536 11 0 0.0 3.2 0.00 0.03 0.03 86 1023.8
20260507041020 11 0 0.0 3.2 0.00 0.03 0.03 85 1023.9
20260507040520 11 0 0.0 0.0 0.00 0.03 0.03 86 1023.8
20260507040036 12 0 0.0 0.0 0.00 0.03 0.03 86 1023.8
20260507035519 12 0 0.0 0.0 0.00 0.03 0.03 86 1023.7
20260507035021 12 0 0.0 0.0 0.00 0.03 0.03 85 1023.6
20260507034540 12 0 0.0 3.2 0.00 0.03 0.03 85 1023.6
20260507034021 12 0 0.0 3.2 0.00 0.03 0.03 85 1023.5
20260507033520 12 223 0.0 3.2 0.00 0.03 0.03 85 1023.5
20260507033042 12 0 0.0 1.6 0.00 0.03 0.03 84 1023.4
20260507032519 12 0 0.0 1.6 0.00 0.03 0.03 84 1023.5
20260507032019 12 0 0.0 1.6 0.00 0.03 0.03 84 1023.4
20260507031536 12 0 0.0 1.6 0.00 0.03 0.03 84 1023.2
20260507031021 12 0 0.0 1.6 0.00 0.03 0.03 84 1023.2
20260507030521 12 0 0.0 1.6 0.00 0.03 0.03 84 1023.2
20260507030038 12 0 0.0 1.6 0.00 0.03 0.03 85 1023.2
20260507025519 12 0 0.0 0.0 0.00 0.03 0.03 84 1023.2
20260507025020 12 0 0.0 0.0 0.00 0.03 0.03 84 1023.2
20260507024541 12 0 0.0 1.6 0.00 0.03 0.03 84 1023.2
20260507024019 12 0 0.0 1.6 0.00 0.03 0.03 84 1023.1
20260507023519 12 0 0.0 1.6 0.00 0.03 0.03 84 1023.1
20260507023038 12 0 0.0 3.2 0.00 0.03 0.03 84 1023.2
20260507022519 12 0 0.0 3.2 0.00 0.03 0.03 84 1023.1
20260507022021 12 0 0.0 1.6 0.00 0.03 0.03 83 1023.0
20260507021547 12 0 0.0 1.6 0.00 0.03 0.03 83 1023.2
20260507021019 12 0 0.0 0.0 0.00 0.03 0.03 83 1023.1
20260507020520 12 0 0.0 0.0 0.00 0.03 0.03 83 1023.2
20260507020036 12 0 0.0 0.0 0.00 0.03 0.03 84 1023.2
20260507015519 12 0 0.0 0.0 0.00 0.03 0.03 84 1023.2
20260507015019 12 0 0.0 0.0 0.00 0.03 0.03 82 1023.2
20260507014535 12 0 0.0 0.0 0.00 0.03 0.03 82 1023.1
20260507014025 12 0 0.0 0.0 0.00 0.03 0.03 84 1023.1
20260507013519 12 0 0.0 0.0 0.00 0.03 0.03 83 1023.1
20260507013038 12 0 0.0 0.0 0.00 0.03 0.03 83 1023.2
20260507012522 12 0 0.0 0.0 0.00 0.03 0.03 83 1023.1
20260507012019 12 0 0.0 0.0 0.00 0.03 0.03 82 1023.2
20260507011538 12 0 0.0 4.8 0.00 0.03 0.03 82 1023.1
20260507011019 12 0 0.0 4.8 0.00 0.03 0.03 82 1023.1
20260507010520 12 48 0.0 4.8 0.00 0.03 0.03 82 1023.2
20260507010043 12 0 0.0 4.8 0.00 0.03 0.03 81 1023.2
20260507005520 12 86 1.6 4.8 0.00 0.03 0.03 81 1023.2
20260507005026 12 77 0.0 6.4 0.00 0.03 0.03 82 1023.3
20260507004535 12 81 0.0 6.4 0.00 0.03 0.03 82 1023.2
20260507004020 12 105 0.0 4.8 0.00 0.03 0.03 82 1023.3
20260507003520 12 0 0.0 4.8 0.00 0.03 0.03 82 1023.4
20260507003035 12 0 0.0 4.8 0.00 0.03 0.03 82 1023.3
20260507002519 12 0 0.0 3.2 0.00 0.03 0.03 82 1023.4
20260507002019 12 0 0.0 4.8 0.00 0.03 0.03 83 1023.4
20260507001537 12 0 0.0 4.8 0.00 0.03 0.03 82 1023.4
20260507001019 12 88 0.0 4.8 0.00 0.03 0.03 82 1023.3
20260507000523 12 87 0.0 4.8 0.00 0.03 0.03 83 1023.3
20260507000038 12 0 0.0 4.8 0.00 0.03 0.03 82 1023.3
20260506235520 12 63 0.0 4.8 0.00 0.03 0.03 82 1023.4
20260506235025 12 0 0.0 1.6 0.00 0.03 0.03 82 1023.4
20260506234548 12 0 0.0 1.6 0.00 0.03 0.03 81 1023.4
20260506234020 12 0 0.0 1.6 0.00 0.03 0.03 82 1023.4
20260506233520 12 0 0.0 0.0 0.00 0.03 0.03 82 1023.4
20260506233036 12 0 0.0 1.6 0.00 0.03 0.03 82 1023.5
20260506232522 12 0 0.0 1.6 0.00 0.03 0.03 82 1023.4
20260506232019 12 0 0.0 1.6 0.00 0.03 0.03 81 1023.4
20260506231538 12 0 0.0 1.6 0.00 0.03 0.03 82 1023.5
20260506231018 12 0 0.0 1.6 0.00 0.03 0.03 81 1023.4
20260506230519 12 0 0.0 1.6 0.00 0.03 0.03 81 1023.4
20260506230040 12 320 0.0 1.6 0.00 0.03 0.03 81 1023.4
20260506225519 12 0 0.0 3.2 0.00 0.03 0.03 82 1023.5
20260506225019 12 0 0.0 3.2 0.00 0.03 0.03 83 1023.5
20260506224530 12 0 0.0 3.2 0.00 0.03 0.03 82 1023.5
20260506224021 12 248 0.0 3.2 0.00 0.03 0.03 82 1023.6
20260506223518 12 0 0.0 1.6 0.00 0.03 0.03 83 1023.6
20260506223030 12 0 0.0 1.6 0.00 0.03 0.03 82 1023.6
20260506222518 12 0 0.0 3.2 0.00 0.03 0.03 82 1023.6
20260506222019 12 0 0.0 3.2 0.00 0.03 0.03 83 1023.7
20260506221534 12 234 0.0 3.2 0.00 0.03 0.03 83 1023.7
20260506221016 12 0 0.0 3.2 0.00 0.03 0.03 82 1023.7
20260506220517 12 0 0.0 3.2 0.00 0.03 0.03 83 1023.7
20260506220036 12 58 0.0 3.2 0.00 0.03 0.03 83 1023.7
20260506215517 12 319 0.0 3.2 0.00 0.03 0.03 85 1023.7
20260506215017 12 0 0.0 3.2 0.00 0.03 0.03 84 1023.7
20260506214534 12 0 0.0 3.2 0.00 0.03 0.03 84 1023.6
20260506214017 12 0 0.0 3.2 0.00 0.03 0.03 84 1023.7
20260506213516 12 0 0.0 3.2 0.00 0.03 0.03 85 1023.6
20260506213033 12 0 0.0 3.2 0.00 0.03 0.03 86 1023.7
20260506212520 12 0 0.0 3.2 0.00 0.03 0.03 85 1023.7
20260506212020 12 0 0.0 3.2 0.00 0.03 0.03 85 1023.8
20260506211535 12 0 0.0 4.8 0.00 0.03 0.03 85 1023.7
20260506211017 12 0 0.0 4.8 0.00 0.03 0.03 85 1023.6
20260506210518 12 0 0.0 4.8 0.00 0.03 0.03 86 1023.6
20260506210038 12 0 0.0 4.8 0.00 0.03 0.03 86 1023.6
20260506205517 12 257 0.0 4.8 0.00 0.03 0.03 85 1023.5
20260506205020 12 0 0.0 3.2 0.00 0.03 0.03 86 1023.5
20260506204547 12 0 0.0 12.9 0.00 0.03 0.03 86 1023.5
20260506204017 12 238 0.0 12.9 0.00 0.03 0.03 85 1023.5
20260506203522 12 0 3.2 12.9 0.00 0.03 0.03 84 1023.4
20260506203033 12 188 3.2 12.9 0.00 0.03 0.03 85 1023.4
20260506202518 12 0 0.0 4.8 0.00 0.03 0.03 85 1023.4
20260506202017 12 0 0.0 12.9 0.00 0.03 0.03 85 1023.4
20260506201539 12 0 3.2 12.9 0.00 0.03 0.03 84 1023.5
20260506201017 12 245 0.0 6.4 0.00 0.03 0.03 84 1023.4
20260506200517 12 162 1.6 9.7 0.00 0.03 0.03 84 1023.4
20260506200036 12 176 1.6 11.3 0.00 0.03 0.03 84 1023.4
20260506195518 12 230 3.2 11.3 0.00 0.03 0.03 84 1023.4
20260506195024 12 0 1.6 16.1 0.00 0.03 0.03 85 1023.3
20260506194539 12 0 4.8 16.1 0.00 0.03 0.03 85 1023.2
20260506194018 12 167 1.6 11.3 0.00 0.03 0.03 85 1023.2
20260506193520 12 186 3.2 9.7 0.00 0.03 0.03 84 1023.1
20260506193031 12 132 3.2 9.7 0.00 0.03 0.03 85 1023.2
20260506192519 12 134 1.6 9.7 0.00 0.03 0.03 86 1023.2
20260506192019 12 236 3.2 11.3 0.00 0.03 0.03 85 1023.2
20260506191537 12 269 1.6 11.3 0.00 0.03 0.03 85 1023.2
20260506191020 12 226 3.2 11.3 0.00 0.03 0.03 85 1023.2
20260506190520 12 234 1.6 8.0 0.00 0.03 0.03 87 1023.1
20260506190038 12 210 3.2 14.5 0.00 0.03 0.03 86 1023.2
20260506185518 12 235 4.8 14.5 0.00 0.03 0.03 86 1023.2
20260506185019 12 220 6.4 11.3 0.00 0.03 0.03 86 1023.3
20260506184535 12 219 6.4 11.3 0.00 0.03 0.03 86 1023.4
20260506184021 12 238 3.2 11.3 0.00 0.03 0.03 86 1023.2
20260506183520 12 234 3.2 12.9 0.00 0.03 0.03 87 1023.2
20260506183038 12 207 4.8 12.9 0.00 0.03 0.03 88 1023.0
20260506182519 12 175 0.0 8.0 0.00 0.03 0.03 88 1023.0
20260506182019 12 194 3.2 8.0 0.00 0.03 0.03 89 1023.0
20260506181536 12 218 1.6 8.0 0.00 0.03 0.03 89 1023.0
20260506181019 12 162 3.2 8.0 0.00 0.03 0.03 89 1023.1
20260506180524 11 189 1.6 6.4 0.00 0.03 0.03 90 1023.1
20260506180038 11 0 1.6 8.0 0.00 0.03 0.03 90 1023.0
20260506175518 11 227 3.2 8.0 0.00 0.03 0.03 91 1023.0
20260506175019 11 254 3.2 8.0 0.00 0.03 0.03 91 1023.2
20260506174536 11 254 3.2 8.0 0.00 0.03 0.03 91 1023.1
20260506174020 11 205 1.6 8.0 0.00 0.03 0.03 93 1023.2
20260506173519 11 0 0.0 6.4 0.00 0.03 0.03 92 1023.1
20260506173037 11 213 1.6 8.0 0.00 0.03 0.03 93 1023.2
20260506172519 11 234 0.0 8.0 0.00 0.03 0.03 93 1023.1
20260506172019 11 280 3.2 8.0 0.00 0.03 0.03 93 1023.1
20260506171543 11 242 1.6 6.4 0.00 0.03 0.03 93 1023.1
20260506171019 11 0 0.0 6.4 0.00 0.03 0.03 93 1023.1
20260506170519 11 236 1.6 6.4 0.00 0.03 0.03 94 1023.0
20260506170042 11 225 1.6 9.7 0.00 0.03 0.03 94 1023.0
20260506165519 11 286 3.2 9.7 0.00 0.03 0.03 93 1022.9
20260506165019 11 298 3.2 8.0 0.00 0.03 0.03 94 1022.8
20260506164546 11 233 1.6 8.0 0.00 0.03 0.03 94 1022.6
20260506164020 11 0 1.6 8.0 0.00 0.03 0.03 94 1022.5
20260506163525 11 175 1.6 6.4 0.00 0.03 0.03 95 1022.5
20260506163032 11 227 3.2 8.0 0.00 0.03 0.03 94 1022.5
20260506162517 11 246 0.0 8.0 0.00 0.03 0.03 95 1022.5
20260506162020 11 0 0.0 6.4 0.03 0.03 0.03 95 1022.3
20260506161539 11 232 3.2 8.0 0.03 0.03 0.03 95 1022.6
20260506161017 11 217 4.8 8.0 0.03 0.03 0.03 95 1022.7
20260506160521 11 275 1.6 8.0 0.03 0.03 0.03 95 1022.9
20260506160044 11 0 1.6 8.0 0.03 0.03 0.03 95 1022.8
20260506155517 11 222 3.2 8.0 0.03 0.03 0.03 95 1022.8
20260506155017 11 269 1.6 6.4 0.03 0.03 0.03 95 1022.7
20260506154536 11 249 1.6 4.8 0.03 0.03 0.03 95 1022.7
20260506154015 11 235 0.0 4.8 0.03 0.03 0.03 95 1022.7
20260506153517 11 194 0.0 6.4 0.03 0.03 0.03 95 1022.5
20260506153033 11 0 0.0 6.4 0.03 0.03 0.03 95 1022.3
20260506152518 11 205 1.6 8.0 0.03 0.03 0.03 95 1022.4
20260506152018 11 221 3.2 8.0 0.00 0.00 0.00 94 1022.6
20260506151549 11 252 0.0 4.8 0.00 0.00 0.00 95 1022.6
20260506151019 11 0 0.0 4.8 0.00 0.00 0.00 95 1022.7
20260506150519 11 209 1.6 4.8 0.00 0.00 0.00 95 1022.6
20260506150035 11 0 0.0 3.2 0.00 0.00 0.00 95 1022.8
20260506145518 11 0 0.0 3.2 0.00 0.00 0.00 95 1022.7
20260506145023 11 240 0.0 3.2 0.00 0.00 0.00 95 1022.5
20260506144535 11 0 0.0 6.4 0.00 0.00 0.00 95 1022.3
20260506144029 11 0 0.0 8.0 0.00 0.00 0.00 95 1022.4
20260506143519 11 157 3.2 8.0 0.00 0.00 0.00 94 1022.1
20260506143044 11 154 1.6 8.0 0.00 0.00 0.00 94 1022.2
20260506142518 11 0 1.6 6.4 0.00 0.00 0.00 94 1022.3
20260506142017 11 0 1.6 6.4 0.00 0.00 0.00 94 1022.4
20260506141530 11 227 1.6 6.4 0.00 0.00 0.00 94 1022.3
20260506141016 11 216 0.0 4.8 0.00 0.00 0.00 94 1022.6
20260506140518 11 196 0.0 4.8 0.00 0.00 0.00 94 1022.4
20260506140038 11 0 0.0 6.4 0.00 0.00 0.00 94 1022.4
20260506135517 11 223 3.2 6.4 0.00 0.00 0.00 94 1022.4
20260506135020 11 0 1.6 6.4 0.00 0.00 0.00 94 1022.5
20260506134536 11 238 1.6 8.0 0.00 0.00 0.00 94 1022.3
20260506134017 11 205 1.6 8.0 0.00 0.00 0.00 94 1022.3
20260506133518 11 232 1.6 9.7 0.00 0.00 0.00 94 1022.3
20260506133039 11 212 4.8 9.7 0.00 0.00 0.00 93 1022.1
20260506132520 11 130 3.2 6.4 0.00 0.00 0.00 94 1021.9
20260506132017 11 0 0.0 6.4 0.00 0.00 0.00 94 1022.0
20260506131533 11 0 0.0 6.4 0.00 0.00 0.00 93 1022.0
20260506131022 11 175 1.6 6.4 0.00 0.00 0.00 94 1022.0
20260506130521 11 169 0.0 8.0 0.00 0.00 0.00 94 1021.9
20260506130033 11 205 1.6 8.0 0.00 0.00 0.00 94 1022.0
20260506125517 11 194 1.6 9.7 0.00 0.00 0.00 94 1021.8
20260506125019 11 0 3.2 9.7 0.00 0.00 0.00 93 1021.8
20260506124530 11 157 1.6 9.7 0.00 0.00 0.00 93 1021.8
20260506124017 11 211 0.0 6.4 0.00 0.00 0.00 93 1021.7
20260506123518 11 154 1.6 6.4 0.00 0.00 0.00 93 1021.7
20260506123036 11 137 1.6 6.4 0.00 0.00 0.00 93 1021.6
20260506122518 11 0 0.0 6.4 0.00 0.00 0.00 93 1021.7
20260506122017 11 186 0.0 6.4 0.00 0.00 0.00 93 1021.7
20260506121533 11 186 0.0 6.4 0.00 0.00 0.00 92 1021.7
20260506121017 11 173 1.6 6.4 0.00 0.00 0.00 92 1021.6
20260506120520 11 188 0.0 6.4 0.00 0.00 0.00 92 1021.5
20260506120038 11 0 0.0 8.0 0.00 0.00 0.00 91 1021.4
20260506115514 11 197 1.6 8.0 0.00 0.00 0.00 91 1021.4
20260506115017 11 202 0.0 6.4 0.00 0.00 0.00 91 1021.4
20260506114540 11 155 1.6 8.0 0.00 0.00 0.00 90 1021.5
20260506114017 11 201 3.2 8.0 0.00 0.00 0.00 90 1021.5
20260506113518 11 226 1.6 8.0 0.00 0.00 0.00 90 1021.6
20260506113036 11 139 1.6 8.0 0.00 0.00 0.00 89 1021.5
20260506112519 11 195 3.2 8.0 0.00 0.00 0.00 89 1021.4
20260506112017 11 0 0.0 3.2 0.00 0.00 0.00 88 1021.5
20260506111537 11 174 0.0 6.4 0.00 0.00 0.00 88 1021.4
20260506111017 11 225 0.0 6.4 0.00 0.00 0.00 88 1021.3
20260506110520 11 206 0.0 6.4 0.00 0.00 0.00 88 1021.2
20260506110046 11 251 1.6 8.0 0.00 0.00 0.00 87 1021.2
20260506105518 11 0 3.2 8.0 0.00 0.00 0.00 87 1021.2
20260506105018 11 189 1.6 6.4 0.00 0.00 0.00 87 1021.0
20260506104537 11 227 0.0 6.4 0.00 0.00 0.00 87 1021.0
20260506104018 11 226 1.6 6.4 0.00 0.00 0.00 87 1021.0
20260506103519 11 0 0.0 4.8 0.00 0.00 0.00 87 1021.0
20260506103036 11 239 1.6 6.4 0.00 0.00 0.00 87 1020.9
20260506102518 11 249 1.6 6.4 0.00 0.00 0.00 87 1020.8
20260506102018 11 248 1.6 8.0 0.00 0.00 0.00 87 1020.8
20260506101549 11 263 3.2 11.3 0.00 0.00 0.00 87 1020.8
20260506101018 11 220 3.2 11.3 0.00 0.00 0.00 87 1020.7
20260506100520 11 249 3.2 9.7 0.00 0.00 0.00 86 1020.6
20260506100035 12 228 4.8 9.7 0.00 0.00 0.00 87 1020.6
20260506095517 12 231 1.6 11.3 0.00 0.00 0.00 87 1020.6
20260506095016 12 231 3.2 11.3 0.00 0.00 0.00 87 1020.5
20260506094530 12 263 3.2 9.7 0.00 0.00 0.00 87 1020.4
20260506094017 12 231 3.2 8.0 0.00 0.00 0.00 87 1020.3
20260506093518 12 271 1.6 8.0 0.00 0.00 0.00 87 1020.4
20260506093032 12 234 1.6 8.0 0.00 0.00 0.00 87 1020.3
20260506092518 12 239 3.2 8.0 0.00 0.00 0.00 86 1020.3
20260506092021 12 301 3.2 8.0 0.00 0.00 0.00 86 1020.3
20260506091536 12 230 1.6 6.4 0.00 0.00 0.00 87 1020.2
20260506091018 12 230 3.2 6.4 0.00 0.00 0.00 87 1020.2
20260506090517 12 0 0.0 4.8 0.00 0.00 0.00 87 1020.2
20260506090037 12 215 0.0 6.4 0.00 0.00 0.00 87 1020.1
20260506085517 12 196 1.6 6.4 0.00 0.00 0.00 87 1020.2
20260506085019 12 0 1.6 6.4 0.00 0.00 0.00 87 1020.1
20260506084533 12 193 0.0 3.2 0.00 0.00 0.00 87 1020.0